Location: Góry Miechowskie
(50.3599°N, 20.1803°E)
Time: 02:06:34
(UTC+00:00)

Transit 2A Rocket - Pass Details

Date: 19 September 2024
Orbit: 582 x 908 km, 66.7° (Epoch: 10 October)

Event Time Altitude Azimuth Distance (km) Brightness Sun altitude
Exits shadow 21:41:58 23° 37° (NE) 1,844 7.2 -37.5°
Drops below altitude 10° 21:44:04 10° 37° (NE) 2,596 8.1 -37.6°
Sets 21:46:35 0° 38° (NE) 3,525 8.9 -37.7°
